This is the latest recevied weather packets stored in our database for station/object OK1FET-4. If no packets are shown the sender has not sent any weather packets the latest 1 day(s).
| Time | Temp. | Humidity | Pressure | Rain* | Wind** | Luminosity | Snow |
|---|---|---|---|---|---|---|---|
| 1777990232 | 25° C | 55% | 1006 hPa | - | 0.89 m/s, 6° | - | - |
| 1777989930 | 25° C | 58% | 1006.1 hPa | - | 1.79 m/s, 329° | - | - |
| 1777989930 | 25° C | 58% | 1006.1 hPa | - | 1.79 m/s, 329° | - | - |
| 1777989930 | 25° C | 58% | 1006.1 hPa | - | 1.79 m/s, 329° | - | - |
| 1777989629 | 25.56° C | 58% | 1006.2 hPa | - | 0.89 m/s, 177° | - | - |
| 1777989628 | 25.56° C | 58% | 1006.2 hPa | - | 0.89 m/s, 177° | - | - |
| 1777989327 | 26.11° C | 61% | 1006.3 hPa | - | 0.89 m/s, 100° | - | - |
| 1777989327 | 26.11° C | 61% | 1006.3 hPa | - | 0.89 m/s, 100° | - | - |
| 1777989025 | 26.67° C | 60% | 1006.3 hPa | - | 0.89 m/s, 90° | - | - |
| 1777989025 | 26.67° C | 60% | 1006.3 hPa | - | 0.89 m/s, 90° | - | - |
| 1777988723 | 27.78° C | 63% | 1006.3 hPa | - | 0.89 m/s, 113° | - | - |
| 1777988723 | 27.78° C | 63% | 1006.3 hPa | - | 0.89 m/s, 113° | - | - |
| 1777988421 | 28.33° C | 66% | 1006.3 hPa | - | 0.89 m/s, 66° | - | - |
| 1777988421 | 28.33° C | 66% | 1006.3 hPa | - | 0.89 m/s, 66° | - | - |
| 1777988421 | 28.33° C | 66% | 1006.3 hPa | - | 0.89 m/s, 66° | - | - |
| 1777988119 | 28.89° C | 65% | 1006.3 hPa | - | 1.34 m/s, 332° | - | - |
| 1777988119 | 28.89° C | 65% | 1006.3 hPa | - | 1.34 m/s, 332° | - | - |
| 1777987817 | 29.44° C | 69% | 1006.4 hPa | - | 0.89 m/s, 36° | - | - |
| 1777987817 | 29.44° C | 69% | 1006.4 hPa | - | 0.89 m/s, 36° | - | - |
| 1777987817 | 29.44° C | 69% | 1006.4 hPa | - | 0.89 m/s, 36° | - | - |
| 1777987514 | 29.44° C | 68% | 1006.4 hPa | - | 0.89 m/s, 21° | - | - |
| 1777987514 | 29.44° C | 68% | 1006.4 hPa | - | 0.89 m/s, 21° | - | - |
| 1777987212 | 29.44° C | 64% | 1006.3 hPa | - | 0.89 m/s, 95° | - | - |
| 1777987212 | 29.44° C | 64% | 1006.3 hPa | - | 0.89 m/s, 95° | - | - |
| 1777986910 | 29.44° C | 69% | 1006.4 hPa | - | 0.89 m/s, 75° | - | - |
* Rain since midnight (hover to see other rain measurements)
** Current wind speed in m/s (hover to see current wind gust speed)